sat.trackr.live / text

‹ back to catalog

STARLINK-5369

NORAD 54837 · 2022-177T

PAYLOAD ACTIVE UNKNOWN

§ Identity

Operator
Country
US
Launch date
2022-12-28
Launch site
AFETR
Launch vehicle
Mass (kg)
RCS (m²)

Purposes: comms

External: N2YO · Heavens-Above · Gunter

§ Orbital elements

Epoch: 2026-05-25T02:45:27.404064Z

Period
88.39 min
Inclination
42.9905°
Eccentricity
0.0008896
Mean motion
16.29139185 rev/d
Perigee alt
189.0 km
Apogee alt
200.7 km
Semi-major
6,573.0 km
B*
6.0647e-4
RAAN
41.2600°
Arg perigee
254.7045°
Mean anomaly
105.2861°
Rev number
18,887

§ Raw data

STARLINK-53691 54837U 22177T   26145.11490051  .02707337  90641-5  60647-3 0  99952 54837  42.9905  41.2600 0008896 254.7045 105.2861 16.29139185188879

JSON: /api/v1/satellites/54837 · /tle

For live sub-satellite position, see the globe view (requires WebGL).

§ Visibility from observer

Set your observer location to see the next 7 days of passes ≥ 10°. The values pass through the URL so the page stays shareable.

No JS? Fill the form by hand. The geolocation button needs JavaScript.